Total_Precipitation_Accumulation
1.18 1.14 1.08 0.92 0.90 0.88 0.84 0.72 0.65 0.76 0.65 0.52 0.38 0.34 0.34 0.37 0.43 0.55 0.63 0.78 0.96 0.93 0.94 1.18 1.47 1.99 2.14
1.17 1.08 1.05 1.01 1.06 1.00 0.80 0.70 0.54 0.56 0.56 0.49 0.42 0.34 0.33 0.33 0.37 0.50 0.67 0.81 0.98 1.08 1.08 1.08 1.05 1.47 2.36
1.50 1.07 0.97 0.88 0.84 0.69 0.51 0.48 0.46 0.60 0.61 0.59 0.56 0.53 0.49 0.50 0.51 0.56 0.70 0.96 1.16 1.10 1.21 1.31 1.45 1.41 2.00
1.66 1.28 1.08 0.99 1.09 0.94 0.78 0.62 0.56 0.54 0.61 0.64 0.67 0.68 0.68 0.68 0.67 0.66 0.71 0.83 1.21 1.32 1.35 1.22 1.52 1.39 1.60
1.69 1.44 1.17 0.96 0.93 0.88 0.97 0.88 0.91 0.78 0.78 0.85 0.80 0.74 0.66 0.73 0.77 0.79 0.79 0.84 1.04 1.44 1.63 1.81 1.68 1.74 1.80
1.46 1.09 0.81 0.79 0.74 0.85 1.02 1.01 0.84 0.45 0.60 0.65 0.72 0.81 0.86 0.87 1.05 0.85 0.78 0.84 0.90 1.14 1.36 1.38 1.55 1.63 1.68
0.96 0.87 0.80 0.78 1.09 1.17 0.98 0.96 0.79 0.54 0.72 0.76 0.68 0.68 0.65 0.71 0.86 0.76 0.82 0.92 1.03 1.07 1.11 1.16 1.29 1.45 1.38
0.95 1.04 1.22 1.15 1.05 1.12 1.04 0.97 0.77 0.69 0.75 0.91 0.67 0.69 0.60 0.61 0.86 0.65 0.69 0.84 0.98 1.05 1.16 1.30 1.39 1.47 1.31
1.00 1.10 0.99 0.92 0.96 1.11 1.19 1.13 0.95 0.65 0.67 0.82 0.76 0.74 0.72 0.76 0.89 1.03 0.96 0.94 0.93 0.90 0.93 1.10 1.30 1.40 1.41
0.87 0.67 0.67 0.69 0.77 0.83 1.18 1.69 1.13 0.97 0.60 1.04 0.85 0.85 1.20 0.73 0.84 0.94 0.92 0.99 0.93 0.90 0.87 0.97 1.19 1.02 1.01
0.65 0.62 0.52 0.51 0.57 0.64 0.82 1.51 1.78 1.28 0.75 1.66 1.60 0.84 1.20 0.87 0.94 0.97 0.82 0.86 0.88 1.01 1.11 1.06 1.34 1.35 1.22
0.39 0.38 0.38 0.34 0.30 0.31 0.40 0.60 0.92 1.27 0.78 1.03 1.75 0.92 1.33 1.07 0.80 0.83 0.81 0.91 1.16 1.36 1.45 1.16 1.28 1.48 1.38
0.24 0.21 0.22 0.24 0.25 0.28 0.34 0.39 0.46 0.60 0.66 0.70 1.14 1.14 1.33 1.19 0.85 0.68 0.91 0.94 1.02 1.12 1.19 1.34 1.30 1.15 1.11
0.32 0.24 0.26 0.31 0.36 0.45 0.65 0.54 0.66 0.53 0.59 0.75 0.93 1.12 1.14 0.82 0.95 0.90 0.80 1.09 1.01 1.00 0.96 1.19 1.37 1.08 0.77
0.56 0.60 0.55 0.55 0.57 0.64 0.91 1.06 1.11 0.79 0.70 0.66 0.62 0.63 0.75 0.80 0.89 0.71 0.75 0.85 1.11 1.10 0.93 1.15 1.23 1.15 0.86
0.49 0.52 0.64 0.66 0.73 0.75 0.99 1.19 1.14 0.92 0.90 0.78 0.68 0.69 0.65 0.59 0.71 0.91 0.89 0.93 1.14 0.96 0.82 0.90 1.05 1.26 0.98
0.78 0.81 0.81 0.72 0.77 0.82 0.92 0.98 0.93 0.78 0.64 0.51 0.63 0.89 0.99 0.56 0.44 0.79 1.33 1.13 0.91 0.80 0.64 0.63 0.85 1.03 0.89